1998-067SX (49278 NORAD) Tracking and Keplerian Element Data

This shows tracking and keplerian element data for the satellite.

Feedback or suggestion? Click here.




ElementValue
Catalog49278
Name1998-067SX
Epoch Orbit32
Epoch Day287.03020311
Epoch Year2021
RAAN115.0864
Inclination51.6413
Eccentricity0.0006986
Argument of Perigee134.3861
Mean Anonmoly6.3148
Mean Motion15.49589141
Decay Rate0.00057698
L11 49278U 98067SX 21287.03020311 .00057698 00000-0 10255-2 0 9990
L22 49278 51.6413 115.0864 0006986 134.3861 6.3148 15.49589141 326

Live tracking and technical data element details for 1998-067SX (NORAD 49278). 1998-067SX can be tracked NOW for your location showing map with azimuth and elevation plus other details from your city location.

Track the satellite on the map from your city or location and see movement details for azimuth, elevation, latitude, longitude, range, height, and movement on the map or in text.







IsCatalogInMostPopularTable: catalog: 49278, numindb: -1

Insert: records affected: 1


GetName: 49278 1998-067SX

Hit Count: inserted at: Tue, 19 Oct 2021 09:07:28 GMT